Showing default

TECHNOSAT, 42829

Orbit data source: Space-Track

TECHNOSAT, 42829 is a payload satellite owned by TUB (DE) in SSO that was launched on Fri, 14 Jul 2017 UTC via a SOYUZ-2-1A launch vehicle from the Tyuratam Missile And Space Complex (TTMTR). Payload-class satellites include a variety of spacecraft equipped with specific instruments for various scientific and technological missions. These include communications satellites like Starlink; space stations such as the ISS; scientific satellites like the Hubble; Earth observation satellites from companies like Planet Labs, Umbra, and HawkEye 360; GPS; miniature CubeSats for education and research; and military/defense satellites.

Loading next visibility...
Identifier
42829, 2017-042E
Orbit
SSO
Country
Flag of DEDE / GER
Related business
Manufacturer
TUB
Mission
Operational Amateur Technology
Bus & Motor
TUBIX20, Unknown motor
Mass
18 kg wet, 18 kg dry
Launch date (UTC)
2017-07-14 (9 years ago)
Launch vehicle
SOYUZ-2-1A
Launch site
Tyuratam Missile And Space Complex (TTMTR)
Object type
Payload
Rocket body
Debris
Shape & HBR
Oct Cyl, 1.0 m
Radar Cross Section
0.175 m², Medium (>0.1 m² and < 1m²)

Expand to show TLE details & history
Last TLE update: 16 hours ago

TLE from 16 hours ago
0 TECHNOSAT
1 42829U 17042E   26125.42635560  .00003808  00000-0  27398-3 0  9997
2 42829  97.4249 284.7320 0016129 236.2788 123.6902 15.04703888480271
Epoch: 2026-05-05T10:13Z
TLE epoch observation values (Epoch: 2026-05-05T10:13:57.123Z)
Latitude
-0.00005°
Longitude
-92.05738°
Altitude
561.698 km
Speed
7.577 km/s
True Right ascension
18h 58m 55s
True Declination
0° 00' 00"
Sunlit
Object was in full shadow at epoch
Visualization orbit readout
Latitude
Unknown
Longitude
Unknown
Altitude
Unknown
Speed
Unknown
Apparent Right ascension
Unknown
Apparent Declination
Unknown
Sunlit
N/A
Visualization observer readout
Local Sidereal Time
10:05:37
Azimuth
Unknown
Elevation
Unknown
Doppler factor
Unknown
Orbital elements
Apogee altitude
560.575 km
Perigee altitude
538.228 km
Semi-major axis
6,927.539 km
Eccentricity
0.00161
Inclination
97.4249°
RAAN
284.732°
Arg. of periapsis
236.2788°
True anomaly
123.84381°
Mean anomaly
123.6902°
Eccentric anomaly
123.76702°
Mean motion
3.76422 °/min
Orbital period
95.64 mins
BSTAR
0.00027398
Loading maneuver chart data...
Computing Atmospheric mass density...
Loading historical data...
Loading historical data...
Loading historical data...
Loading historical data...
Loading historical data...
Loading historical data...
Loading historical data...

Documentation

Showing up to 5 results
|